EHI
0 0 0 0 0 1 2 3 3 3 3 1 0 0 0 0 0 1 3 10 17 22 22 20 17 16 17 16 13 10 9 9 12 16 14 12 11 11 10 9 7 5 4
1 1 1 0 0 0 1 2 2 2 2 1 0 0 0 0 0 0 2 6 13 19 21 20 18 15 14 13 11 9 8 9 12 14 11 8 7 8 8 7 6 5 4
3 3 2 0 0 0 0 1 1 1 1 1 0 0 0 0 0 0 0 2 6 11 15 17 16 12 9 9 9 7 6 7 8 8 5 3 3 3 3 3 3 3 2
5 4 2 1 0 0 0 0 0 0 0 0 0 0 0 0 0 0 0 0 1 4 7 9 10 7 6 7 7 6 5 5 3 2 1 1 1 1 1 0 1 1 2
9 6 3 2 1 0 0 0 0 0 0 0 0 0 0 0 0 0 0 0 0 1 2 3 3 3 3 5 6 4 3 3 2 0 0 0 0 0 0 0 0 1 1
12 8 5 4 4 2 0 0 0 0 0 0 0 0 0 0 0 0 0 0 0 0 0 0 0 0 1 3 3 3 2 1 1 0 0 0 0 0 0 0 0 0 0
13 10 7 6 6 4 1 0 0 0 0 0 0 0 0 0 0 0 0 0 0 0 0 0 0 0 1 2 2 1 0 0 0 0 0 0 0 0 1 0 0 0 0
10 9 6 5 4 3 1 0 0 0 0 0 0 0 0 0 0 0 0 0 0 0 0 0 0 0 0 1 1 1 0 0 0 0 0 0 0 0 0 0 0 0 0
8 6 4 2 1 1 0 0 0 0 0 0 0 0 0 0 0 0 0 0 0 0 0 0 0 0 0 0 0 0 0 0 0 0 0 0 0 0 0 0 0 0 0
6 5 3 1 0 0 0 0 0 0 0 0 0 0 0 0 0 0 0 0 0 0 0 0 0 0 0 0 0 0 0 0 0 0 0 0 0 0 0 0 0 0 0
4 4 4 1 0 0 0 0 0 0 0 0 0 0 0 0 0 0 0 0 0 0 0 0 0 0 0 0 0 0 0 0 0 0 0 0 0 0 0 0 0 0 0
1 2 2 1 0 0 0 0 0 0 0 0 0 0 0 0 0 0 0 0 0 0 0 0 0 0 0 0 0 0 0 0 0 0 0 0 0 0 0 0 0 0 0
0 0 0 0 0 0 0 0 0 0 0 0 0 0 0 0 0 0 0 0 0 0 0 0 0 0 0 0 0 0 0 0 0 0 0 0 0 0 0 0 0 0 0
0 0 0 0 0 0 0 0 0 0 0 0 0 0 0 0 0 0 0 0 0 0 0 0 0 0 0 0 0 0 0 0 0 0 0 0 0 0 0 0 0 0 0
0 0 0 0 0 0 0 0 0 0 0 0 0 0 0 0 0 0 0 0 0 0 0 0 0 0 0 0 0 0 0 0 0 0 0 0 0 0 0 0 0 0 0
0 0 0 0 0 0 0 0 0 0 0 0 0 0 0 0 0 0 0 0 0 0 0 0 0 0 0 0 0 0 0 0 0 0 0 0 0 0 0 0 0 0 0
0 0 0 0 0 0 0 0 0 0 0 0 0 0 0 0 0 0 0 0 0 0 0 0 0 0 0 0 0 0 0 0 0 0 0 0 0 0 0 0 0 0 0
0 0 0 0 0 0 0 0 0 0 0 0 0 0 0 0 0 0 0 0 0 0 0 0 0 0 0 0 0 0 0 0 0 0 0 0 0 0 0 0 0 0 0
0 0 0 0 0 0 0 0 0 0 0 0 0 0 0 0 0 0 0 0 0 0 0 0 0 0 0 0 0 0 0 0 0 0 0 0 0 0 0 0 0 0 0
0 0 0 0 0 0 0 0 0 0 0 0 0 0 0 0 0 0 0 0 0 0 0 0 0 0 0 0 0 0 0 0 0 0 0 0 0 0 0 0 0 0 0
0 0 0 0 0 0 0 0 0 0 0 0 0 0 0 0 0 0 0 0 0 0 0 0 0 0 0 0 0 0 0 0 0 0 0 0 0 0 0 0 0 0 0
0 0 0 0 0 0 0 0 0 0 0 0 0 0 0 0 0 0 0 0 0 0 0 0 0 0 0 0 0 0 0 0 0 0 0 0 0 0 0 0 0 0 0
0 0 0 0 0 0 0 0 0 0 0 0 0 0 0 0 0 0 0 0 0 0 0 0 0 0 0 0 0 0 0 0 0 0 0 0 0 0 0 0 0 0 0
0 0 0 0 0 0 0 0 0 0 0 0 0 0 0 0 0 0 0 0 0 0 0 0 0 0 0 0 0 0 0 0 0 0 0 0 0 0 0 0 0 0 0
0 0 0 0 0 0 0 0 0 0 0 0 0 0 0 0 0 0 0 0 0 0 0 0 0 0 0 0 0 0 0 0 0 0 0 0 0 0 0 0 0 0 0
0 0 0 0 0 0 0 0 0 0 0 0 0 0 0 0 0 0 0 0 0 0 0 0 0 0 0 0 0 0 0 0 0 0 0 0 0 0 0 0 0 0 0
Wind_Speed
5 4 4 4 4 3 3 2 2 2 2 2 1 1 2 3 4 3 3 8 9 8 9 9 8 7 6 6 5 4 3 3 4 4 4 4 5 5 5 5 5 6 6
5 5 4 4 3 3 3 3 2 2 1 1 1 2 3 4 4 4 2 4 8 8 8 8 7 6 5 5 4 4 3 3 2 2 2 2 1 2 2 3 4 5 5
6 5 4 4 3 3 3 2 1 1 1 2 3 3 3 3 4 4 3 2 3 6 7 6 6 6 5 5 4 4 4 4 4 3 3 3 2 1 1 1 2 3 4
6 5 4 4 3 3 2 2 2 2 2 2 3 2 2 2 3 3 3 3 2 2 4 6 6 6 5 5 5 5 5 5 4 4 4 4 4 4 4 4 4 4 4
6 5 4 3 4 3 2 2 2 2 2 2 2 2 2 2 2 3 3 3 3 3 2 5 7 6 6 6 5 5 4 4 3 3 3 3 4 4 5 5 5 5 5
5 4 3 3 3 3 3 2 3 2 2 2 2 2 1 1 1 2 2 2 2 3 3 3 3 3 6 6 6 5 5 4 4 3 2 1 2 3 4 4 5 6 7
4 4 3 3 3 3 3 3 3 3 2 1 2 2 2 2 1 1 1 2 2 2 2 3 2 2 2 5 6 6 6 5 5 4 3 1 1 2 4 5 6 7 8
4 4 4 3 3 3 3 3 3 2 2 2 2 2 1 2 3 2 2 2 1 1 1 1 2 2 2 2 4 8 7 7 6 5 4 3 1 1 4 6 8 10 11
6 5 5 4 4 3 3 3 3 3 2 2 2 2 2 2 1 2 2 2 1 1 1 1 1 2 3 3 3 7 9 8 8 7 6 5 4 5 6 8 10 12 13
6 6 6 6 6 4 4 3 3 2 3 2 2 3 2 2 1 1 2 2 2 2 2 2 2 2 2 2 4 7 8 7 8 7 7 7 7 8 9 11 12 14 15
7 7 7 6 6 5 5 6 5 5 3 3 2 2 3 3 2 1 1 3 3 2 2 3 2 2 2 2 2 3 5 5 6 7 7 8 9 11 12 14 15 16 17
6 8 8 7 6 6 6 6 6 7 5 5 4 3 2 2 1 1 0 1 2 3 3 3 3 3 2 1 2 2 3 3 4 5 7 9 11 13 15 16 17 18 19
5 7 7 7 6 6 7 6 7 6 5 5 4 3 3 2 1 1 1 1 2 3 3 2 3 3 3 3 3 5 4 3 4 6 8 10 13 15 16 17 18 19 20
6 6 7 7 8 7 7 6 5 5 5 5 5 4 3 2 2 1 1 0 1 2 3 3 2 3 3 2 2 4 3 5 7 8 10 12 14 16 18 18 19 20 20
7 8 8 8 8 7 7 6 5 5 5 4 4 4 3 2 2 2 1 1 1 1 3 3 3 3 3 2 3 2 3 8 10 11 12 13 15 17 18 19 20 20 20
8 8 8 8 8 8 7 6 5 5 6 5 4 5 4 2 3 2 2 1 1 2 2 3 3 3 4 5 7 4 5 11 12 13 14 14 15 16 17 19 20 20 20
8 8 8 8 8 8 7 7 6 6 6 5 4 4 3 2 2 2 2 1 1 1 2 3 3 3 4 5 6 5 5 5 6 13 15 15 15 15 16 17 18 19 19
8 8 8 8 9 8 7 7 7 7 6 5 5 4 4 3 3 2 2 2 1 1 2 3 4 3 5 6 6 6 6 6 5 12 15 16 15 14 14 14 15 15 16
8 8 8 8 8 7 7 6 6 5 5 4 4 4 4 3 3 2 2 2 2 2 1 2 4 3 4 4 4 6 6 5 6 9 12 13 14 15 15 15 14 14 14
8 7 7 7 6 6 6 5 5 5 5 5 5 4 4 4 4 4 3 3 2 3 3 3 4 4 4 5 3 4 5 4 5 7 9 10 12 15 16 16 15 15 14
6 5 6 5 4 4 4 4 4 5 5 6 6 5 5 6 5 2 1 2 2 3 3 4 5 4 5 4 4 3 5 5 6 5 4 5 6 6 8 12 14 15 15
5 5 4 4 3 3 4 6 6 4 5 5 5 6 6 4 5 6 8 8 6 4 4 4 5 6 7 6 5 4 4 4 4 3 3 6 5 6 6 5 11 14 13
3 3 3 3 2 1 3 6 9 5 5 5 5 5 5 4 4 4 7 10 10 11 9 5 5 6 6 6 5 5 5 5 5 4 3 5 4 5 6 7 13 13 13
2 1 1 2 1 0 2 6 8 6 5 5 6 5 4 3 4 4 5 7 7 7 8 5 5 7 7 7 6 5 5 5 5 5 3 4 4 5 7 6 10 12 13
1 0 1 2 2 1 2 4 6 4 4 6 6 6 5 4 7 8 6 7 8 8 9 9 10 11 12 11 7 3 3 3 4 4 2 2 3 5 5 5 6 11 12
1 1 1 1 1 1 2 4 6 3 4 5 6 6 8 7 10 10 6 6 8 8 8 9 9 9 7 6 7 3 3 3 3 3 2 2 3 3 5 4 4 6 7
Wind_Direction
191 190 191 188 193 192 194 210 219 226 221 239 238 144 140 144 142 152 172 178 171 166 168 171 170 172 173 174 176 179 184 194 201 202 203 208 212 216 220 223 224 222 221
182 179 178 180 190 191 192 193 197 198 193 184 112 113 120 128 133 143 142 163 163 162 163 166 165 164 165 162 160 161 160 161 156 144 148 154 180 206 225 236 239 238 234
174 170 166 168 177 174 166 151 147 113 113 95 82 86 100 111 129 129 131 132 148 156 157 157 155 158 161 160 158 149 135 118 103 94 90 85 75 62 23 327 293 280 266
162 155 157 161 157 145 138 131 121 96 74 81 81 76 80 90 105 112 121 127 126 129 149 151 149 149 148 147 144 139 129 117 100 85 72 63 53 45 33 15 356 338 320
157 149 150 148 141 129 125 130 103 111 103 95 102 90 85 96 103 115 119 131 134 139 142 155 154 156 158 156 154 150 143 132 120 107 88 72 58 45 33 18 5 352 338
140 132 127 130 131 120 110 107 107 93 106 117 97 79 46 71 97 114 128 120 133 149 159 154 149 169 175 174 174 173 170 165 156 150 139 99 57 38 20 1 347 338 330
113 115 118 117 121 127 129 126 112 98 76 70 83 38 7 19 58 78 104 108 117 137 154 160 170 189 200 201 197 195 196 194 188 176 165 140 73 24 356 337 324 317 312
96 102 106 107 95 95 92 94 107 111 80 51 113 103 12 353 7 22 50 78 75 62 103 172 193 201 209 203 219 212 210 211 210 207 209 211 214 299 319 316 310 307 303
88 88 90 92 82 86 94 85 93 119 121 58 54 130 149 216 307 343 20 44 35 31 344 320 251 219 213 208 223 230 225 224 227 230 231 233 249 269 286 295 299 299 298
74 78 83 87 87 81 79 70 63 75 103 96 51 42 76 130 148 315 335 358 10 17 345 331 317 279 245 221 224 230 227 222 230 239 246 255 266 276 283 288 291 292 292
70 74 74 78 83 83 77 70 65 63 65 82 80 65 58 49 56 122 312 335 344 339 333 322 317 313 308 262 240 233 231 230 240 253 263 270 277 282 285 286 287 288 289
72 72 76 77 77 76 75 72 69 68 66 72 70 67 78 77 53 74 221 308 314 314 330 347 354 342 339 329 304 292 262 255 260 267 274 280 283 285 286 287 288 287 286
76 74 79 76 74 72 71 70 69 65 62 66 63 60 64 65 72 98 115 297 310 310 334 349 0 2 16 24 20 28 8 340 306 289 284 284 284 285 285 286 285 284 284
84 79 77 74 70 68 68 65 64 60 59 59 54 50 53 43 48 64 107 104 342 324 326 312 335 8 12 9 7 17 339 318 301 286 279 279 282 283 284 285 285 284 283
92 82 78 75 69 64 61 60 58 53 51 51 51 45 42 27 30 41 67 115 142 274 290 298 321 326 331 319 313 309 293 291 294 288 283 280 280 281 282 283 282 281 279
78 78 75 72 68 63 59 59 57 49 50 38 45 47 35 19 17 20 30 52 132 174 246 281 278 289 306 316 310 300 283 299 299 295 290 285 281 280 282 283 282 280 279
71 74 73 74 67 60 53 53 50 45 43 32 28 33 20 14 14 1 7 12 26 152 236 278 274 286 300 305 308 300 290 281 283 293 293 291 287 286 285 285 284 282 280
71 73 72 71 67 61 53 50 44 37 31 20 11 11 354 351 347 334 336 328 304 258 214 278 289 297 296 296 294 297 297 297 289 295 294 293 294 294 293 290 288 283 279
69 69 72 73 69 64 54 45 39 31 19 5 354 347 328 329 312 301 299 298 293 300 266 268 285 285 286 291 299 295 292 292 295 297 297 296 299 301 299 296 291 287 281
74 73 76 80 76 67 55 37 25 16 359 345 336 326 313 299 277 276 279 282 284 297 296 289 285 287 283 285 285 291 300 295 294 297 296 297 299 303 302 300 298 295 290
79 83 88 83 76 69 50 36 13 3 347 336 329 322 313 320 331 321 306 289 286 283 289 286 286 290 291 297 291 279 286 293 288 276 286 292 294 291 294 297 299 297 296
70 79 89 92 77 64 42 26 14 351 337 332 326 324 319 338 1 3 348 332 313 291 282 275 282 285 285 282 279 278 281 296 296 282 286 290 287 285 286 278 288 296 296
75 85 100 109 102 67 30 12 7 3 341 333 328 324 329 349 7 348 334 330 321 310 298 276 272 277 278 275 278 283 276 270 268 270 280 284 288 287 287 293 301 303 301
74 95 137 155 155 263 8 11 5 5 349 340 334 329 327 329 331 328 319 316 307 301 295 290 263 268 271 270 256 259 266 276 274 275 251 270 286 288 295 295 297 301 305
28 318 205 175 180 259 311 360 9 351 342 334 330 332 326 312 309 320 316 309 308 304 302 299 294 291 290 290 281 270 286 291 297 293 266 259 281 294 294 291 295 303 306
1 349 350 220 197 235 297 347 4 352 337 329 325 323 321 314 309 312 301 293 297 298 307 315 314 315 310 308 311 266 251 275 287 289 285 286 285 307 305 291 291 301 308